[[{"header":{"parameterUnit":"m.s-1","parameterCategory":2,"la1":30.2991,"la2":30.254,"lo1":-89.0895,"lo2":-89.0444,"dy":0.0017,"dx":0.0017,"nx":28,"ny":28,"refTime":"2025-06-08T09:00:00:Z","depth":"0","parameterNumber":2,"parameterNumberName":"U-component_of_CURRENTS"},"data":[0,0,0,0,0,0,0,0,0,0,0,0,0,0,0,0,0,0,0,0,0,0,0,0,0,0,0,0,0,0,0,0,0,0,0,0,0,0,0,0,0,0,0,0,0,0,0,0,0,0,0,0,0,0,0,0,0,0,-0.2427,-0.2428,0,-0.25,-0.25,-0.25,-0.2425,-0.2423,-0.242,-0.2418,-0.2348,-0.2348,-0.2349,0,0,0,0,0,0,0,0,0,0,0,0,0,-0.234,-0.2341,-0.2427,-0.2429,-0.243,-0.2499,-0.25,-0.25,-0.2426,-0.2423,-0.242,-0.2417,-0.2348,-0.2348,-0.2349,0,0,0,0,0,0,0,0,0,0,0,0,0,-0.2386,-0.2341,-0.2427,-0.2405,-0.2405,-0.2499,-0.25,-0.25,-0.2426,-0.2423,-0.2419,-0.2416,-0.2348,-0.2348,-0.2349,-0.2423,0,0,-0.235,-0.2351,0,0,0,0,0,0,0,0,-0.2383,-0.2388,-0.2407,-0.2407,-0.2406,-0.2455,-0.2444,-0.247,-0.2427,-0.2412,-0.2418,-0.2414,-0.2377,-0.2375,-0.239,-0.242,-0.2417,-0.235,-0.2351,-0.2351,-0.2351,0,0,0,0,0,0,0,-0.238,-0.2386,-0.245,-0.2409,-0.2409,-0.2433,-0.2433,-0.2449,-0.2406,-0.2413,-0.2409,-0.2428,-0.2374,-0.239,-0.2388,-0.2416,-0.235,-0.2351,-0.2351,-0.2351,-0.2445,-0.2447,0,0,0,0,0,0,-0.2381,-0.2382,-0.2448,-0.2453,-0.2392,-0.2437,-0.2438,-0.2438,-0.2409,-0.2404,-0.2431,-0.2424,-0.2391,-0.2387,-0.2385,-0.2355,-0.2351,-0.2351,-0.2352,-0.2443,-0.2445,-0.2448,0,0,0,0,0,0,-0.2379,-0.2386,-0.2445,-0.2425,-0.2434,-0.2442,-0.2444,-0.2442,-0.2439,-0.2425,-0.2415,-0.2428,-0.2388,-0.2384,-0.2393,-0.2355,-0.2352,-0.2352,-0.244,-0.2443,-0.2446,-0.237,0,0,0,0,0,0,-0.2375,-0.2384,-0.2378,-0.2424,-0.2436,-0.2473,-0.2448,-0.2446,-0.246,-0.2451,-0.2421,-0.2412,-0.2385,-0.2392,-0.2393,-0.2356,-0.2353,-0.2437,-0.2442,-0.2445,-0.237,-0.237,-0.2371,0,0,0,0,0,-0.2372,-0.2376,-0.2376,-0.2385,-0.2428,-0.2474,-0.248,-0.2471,-0.2463,-0.2457,-0.2453,-0.2412,-0.2418,-0.2395,-0.2396,-0.2357,-0.2435,-0.244,-0.2445,-0.237,-0.237,-0.2371,0,0,0,0,0,0,-0.2323,-0.2372,-0.2372,-0.2385,-0.2416,-0.2462,-0.2469,-0.248,-0.2479,-0.2467,-0.2446,-0.2438,-0.243,-0.2439,-0.2414,-0.2409,-0.2419,-0.2424,-0.2361,-0.2362,-0.2362,-0.232,-0.2353,0,0,0,0,0,-0.2319,-0.2331,-0.2381,-0.2387,-0.2409,-0.2445,-0.2463,-0.2464,-0.2482,-0.2477,-0.2467,-0.2466,-0.2462,-0.2445,-0.2454,-0.2458,-0.2411,-0.2441,-0.2441,-0.2441,-0.2415,-0.2326,-0.2312,-0.2464,-0.2464,-0.2464,0,0,-0.2301,-0.2331,-0.2335,-0.2378,-0.2405,-0.2436,-0.2443,-0.2472,-0.2473,-0.2474,-0.2467,-0.2472,-0.2474,-0.2462,-0.2458,-0.245,-0.2381,-0.2447,-0.2445,-0.242,-0.2329,-0.2313,-0.2298,-0.2467,-0.2466,-0.2466,0,0,-0.2296,-0.2303,-0.2324,-0.2353,-0.2404,-0.2425,-0.2435,-0.2483,-0.2469,-0.2493,-0.2483,-0.2457,-0.2489,-0.2441,-0.2431,-0.2453,-0.2396,-0.2484,-0.2423,-0.2336,-0.232,-0.2305,-0.223,-0.2209,-0.2468,-0.2467,-0.2467,0,-0.2275,-0.2298,-0.2334,-0.237,-0.2383,-0.2421,-0.244,-0.2453,-0.2488,-0.2466,-0.2476,-0.2468,-0.2457,-0.2399,-0.2404,-0.2435,-0.2402,-0.2403,-0.2325,-0.231,-0.2296,-0.2222,-0.2199,-0.2464,-0.2465,-0.2465,-0.2465,0,-0.23,-0.231,-0.2327,-0.237,-0.239,-0.2411,-0.2442,-0.2443,-0.2445,-0.2443,-0.2403,-0.2396,-0.237,-0.2373,-0.2391,-0.2302,-0.2317,-0.2336,-0.2296,-0.2274,-0.2201,-0.2178,-0.246,-0.2461,-0.2462,-0.2463,0,0,-0.2262,-0.233,-0.233,-0.2327,-0.2384,-0.2392,-0.24,-0.2393,-0.2354,-0.2368,-0.2298,-0.2292,-0.2276,-0.2269,-0.2271,-0.2195,-0.2068,-0.223,-0.2227,-0.2106,-0.1887,-0.188,-0.1855,-0.2077,-0.2073,-0.207,-0.1873,0,-0.226,-0.23,-0.2338,-0.2336,-0.2346,-0.2366,-0.2355,-0.2346,-0.233,-0.2275,-0.2232,-0.2188,-0.2241,-0.221,-0.2146,-0.2092,-0.2009,-0.212,-0.197,-0.1965,-0.1919,-0.1828,-0.1774,-0.1594,-0.1851,-0.1847,-0.1845,0,-0.2266,-0.228,-0.2297,-0.2278,-0.2283,-0.2289,-0.2236,-0.2236,-0.2183,-0.2162,-0.2111,-0.2094,-0.1996,-0.2046,-0.1894,-0.1973,-0.1926,-0.188,-0.1872,-0.1868,-0.1915,-0.1665,-0.1543,-0.1572,-0.181,-0.1813,-0.1816,0,-0.2199,-0.2231,-0.2226,-0.2233,-0.2245,-0.2227,-0.2223,-0.2191,-0.2144,-0.2083,-0.2018,-0.1947,-0.186,-0.1806,-0.1746,-0.1812,-0.1566,-0.1636,-0.1576,-0.1576,-0.1497,-0.1497,-0.1336,-0.1501,-0.1501,-0.1502,-0.1502,0,-0.2167,-0.2145,-0.219,-0.2183,-0.2124,-0.2167,-0.209,-0.2082,-0.2029,-0.193,-0.1951,-0.1829,-0.1795,-0.1675,-0.1667,-0.1533,-0.1494,-0.1521,-0.1503,-0.1478,-0.1479,-0.148,-0.1547,-0.1494,-0.1496,-0.1497,-0.1499,0,-0.2081,-0.2129,-0.21,-0.2108,-0.2098,-0.2055,-0.2011,-0.1939,-0.1933,-0.18,-0.1769,-0.168,-0.1529,-0.1491,-0.1349,-0.1385,-0.128,-0.126,-0.1244,-0.1228,-0.1251,-0.1318,-0.1164,-0.1125,-0.1156,-0.1154,-0.1153,0,-0.2039,-0.2032,-0.2024,-0.1981,-0.198,-0.193,-0.1872,-0.1879,-0.1805,-0.1686,-0.1588,-0.1434,-0.1279,-0.1098,-0.1111,-0.1052,-0.1128,-0.1017,-0.1133,-0.1194,-0.1255,-0.1332,-0.1316,-0.0997,-0.0995,-0.0993,-0.0991,0,-0.1921,-0.1934,-0.19,-0.1834,-0.1778,-0.1704,-0.1641,-0.1579,-0.1554,-0.1453,-0.1278,-0.1152,-0.0998,-0.0895,-0.087,-0.0861,-0.1037,-0.0976,-0.1009,-0.1078,-0.1172,-0.1146,-0.121,-0.0973,-0.0974,-0.0976,-0.0977,-0.0977,-0.1799,-0.1748,-0.1716,-0.1634,-0.157,-0.1468,-0.1378,-0.1315,-0.1194,-0.1038,-0.0997,-0.0801,-0.08,-0.0738,-0.0716,-0.0788,-0.0862,-0.0851,-0.0911,-0.0971,-0.0978,-0.1017,-0.0799,-0.08,-0.08,-0.0801,-0.0802,0,-0.1612,-0.1575,-0.1502,-0.1403,-0.129,-0.1315,-0.1192,-0.1102,-0.0939,-0.0827,-0.068,-0.0574,-0.0548,-0.06,-0.0745,-0.0764,-0.0765,-0.0781,-0.0862,-0.0834,-0.0808,-0.085,-0.0668,-0.0668,-0.0668,-0.0668,-0.0668,-0.0668,-0.15,-0.1379,-0.1358,-0.1146,-0.1088,-0.0928,-0.0851,-0.0745,-0.066,-0.0468,-0.0365,-0.0276,-0.0432,-0.0784,-0.0885,-0.0835,-0.0851,-0.0836,-0.0865,-0.0872,-0.0884,-0.0896,-0.0947,-0.0787,-0.0788,-0.0838,-0.0838,-0.0839]},{"header":{"parameterUnit":"m.s-1","parameterCategory":2,"la1":30.2991,"la2":30.254,"lo1":-89.0895,"lo2":-89.0444,"dy":0.0017,"dx":0.0017,"nx":28,"ny":28,"refTime":"2025-06-08T09:00:00:Z","depth":"0","parameterNumber":3,"parameterNumberName":"V-component_of_CURRENTS"},"data":[0,0,0,0,0,0,0,0,0,0,0,0,0,0,0,0,0,0,0,0,0,0,0,0,0,0,0,0,0,0,0,0,0,0,0,0,0,0,0,0,0,0,0,0,0,0,0,0,0,0,0,0,0,0,0,0,0,0,0.0169,0.017,0,0.0212,0.0213,0.0213,0.0287,0.0288,0.029,0.0291,0.044,0.0443,0.0445,0,0,0,0,0,0,0,0,0,0,0,0,0,0.0199,0.0198,0.0169,0.017,0.017,0.0212,0.0213,0.0214,0.0287,0.0288,0.029,0.0292,0.0439,0.0442,0.0446,0,0,0,0,0,0,0,0,0,0,0,0,0,0.0209,0.0197,0.0169,0.0211,0.0215,0.0212,0.0213,0.0214,0.0287,0.0289,0.029,0.0292,0.0438,0.0442,0.0446,0.0433,0,0,0.0459,0.0461,0,0,0,0,0,0,0,0,0.0208,0.0208,0.0205,0.0208,0.0213,0.0245,0.0278,0.0292,0.0286,0.0261,0.0291,0.0293,0.0383,0.0391,0.0395,0.044,0.0446,0.0459,0.0462,0.0463,0.0465,0,0,0,0,0,0,0,0.0207,0.0207,0.0187,0.0205,0.021,0.0244,0.0247,0.0281,0.0313,0.0263,0.0268,0.0271,0.0386,0.0391,0.0399,0.0448,0.0459,0.0463,0.0465,0.0467,0.0565,0.0565,0,0,0,0,0,0,0.0195,0.0205,0.0186,0.0189,0.0214,0.0242,0.0246,0.0234,0.031,0.0323,0.0269,0.0274,0.0383,0.0394,0.0405,0.0435,0.0463,0.0467,0.047,0.0565,0.0565,0.0565,0,0,0,0,0,0,0.0195,0.0192,0.0184,0.0199,0.02,0.0239,0.0225,0.0234,0.0243,0.0314,0.0329,0.0271,0.0385,0.0399,0.0439,0.044,0.0469,0.0473,0.0565,0.0565,0.0565,0.0469,0,0,0,0,0,0,0.0195,0.0192,0.0182,0.0197,0.0198,0.0168,0.0224,0.0233,0.0241,0.0248,0.032,0.0335,0.0387,0.0432,0.0443,0.0447,0.0476,0.0564,0.0565,0.0565,0.0472,0.0466,0.0461,0,0,0,0,0,0.0196,0.016,0.0181,0.0179,0.0182,0.0167,0.017,0.0206,0.0239,0.0226,0.0288,0.0333,0.0442,0.0434,0.0447,0.0452,0.0564,0.0565,0.0565,0.0475,0.0467,0.0461,0,0,0,0,0,0,0.0164,0.0164,0.0188,0.0154,0.0159,0.0179,0.0167,0.0196,0.0231,0.0243,0.0323,0.0341,0.0376,0.0425,0.0415,0.0484,0.0515,0.0518,0.0443,0.0436,0.0431,0.0428,0.048,0,0,0,0,0,0.0152,0.013,0.014,0.0116,0.0111,0.014,0.0142,0.016,0.0191,0.0208,0.0263,0.033,0.0383,0.0418,0.0461,0.0491,0.0572,0.0509,0.0503,0.0498,0.0506,0.0663,0.0673,0.0566,0.0566,0.0566,0,0,0.0138,0.0132,0.0124,0.0109,0.0116,0.0096,0.0145,0.0127,0.0129,0.0218,0.024,0.0299,0.0384,0.0419,0.0442,0.0465,0.0558,0.0498,0.0493,0.0504,0.0665,0.0675,0.0685,0.0566,0.0566,0.0566,0,0,0.0082,0.0084,0.0047,0.0043,0.0037,0.0053,0.0044,0.0059,0.0082,0.0098,0.0178,0.0247,0.0303,0.0385,0.0431,0.0423,0.0513,0.043,0.041,0.0561,0.0572,0.0583,0.0641,0.0658,0.0439,0.0439,0.0439,0,0.0067,0.0028,0.0034,-0.0003,-0.0002,0.0029,0.0,0.0012,0.0046,0.0082,0.0091,0.0238,0.0296,0.0397,0.0388,0.0412,0.0483,0.0423,0.0555,0.0568,0.0581,0.0639,0.0659,0.0434,0.0435,0.0435,0.0436,0,-0.0017,-0.0035,-0.0064,-0.0087,-0.0093,-0.0119,-0.0098,-0.0089,-0.0053,-0.001,0.0075,0.0166,0.0271,0.0294,0.033,0.0449,0.0459,0.052,0.0571,0.0586,0.0645,0.0667,0.0428,0.0429,0.0431,0.0432,0,0,-0.0076,-0.011,-0.0117,-0.0116,-0.0133,-0.0141,-0.0149,-0.0118,-0.0081,-0.0037,0.0043,0.0129,0.0203,0.0261,0.0341,0.0462,0.0576,0.0513,0.0523,0.0564,0.0852,0.079,0.0808,0.067,0.0675,0.0679,0.0836,0,-0.013,-0.0196,-0.0198,-0.0229,-0.025,-0.0215,-0.0212,-0.0177,-0.0124,-0.0047,0.0072,0.0161,0.0184,0.0249,0.0368,0.0544,0.0641,0.0524,0.0837,0.0845,0.0787,0.0836,0.0854,0.0992,0.0858,0.0862,0.0865,0,-0.0212,-0.023,-0.028,-0.0261,-0.0266,-0.0277,-0.0223,-0.0215,-0.0112,-0.0062,0.0049,0.0141,0.03,0.033,0.0619,0.0545,0.0674,0.0799,0.0811,0.0811,0.0828,0.097,0.1039,0.1189,0.09,0.0897,0.0895,0,-0.0251,-0.028,-0.0307,-0.0311,-0.0302,-0.0294,-0.0277,-0.021,-0.017,-0.0052,0.0008,0.019,0.031,0.0513,0.0698,0.069,0.1014,0.1053,0.1108,0.1102,0.121,0.1205,0.1466,0.1264,0.1263,0.1263,0.1262,0,-0.0312,-0.0325,-0.032,-0.0335,-0.0328,-0.0316,-0.0283,-0.0246,-0.0157,-0.0083,0.001,0.0118,0.0374,0.056,0.0724,0.096,0.1039,0.1112,0.1165,0.1165,0.1155,0.1363,0.1407,0.1269,0.1267,0.1266,0.1265,0,-0.0359,-0.0368,-0.0379,-0.0363,-0.0355,-0.0348,-0.03,-0.0257,-0.0196,-0.009,-0.0052,0.0119,0.035,0.0556,0.0897,0.0996,0.1317,0.1282,0.1197,0.1236,0.1406,0.1441,0.1719,0.1831,0.1395,0.1395,0.1395,0,-0.039,-0.0409,-0.0395,-0.0387,-0.0379,-0.036,-0.0334,-0.0281,-0.0226,-0.0086,-0.002,0.0184,0.0345,0.0735,0.0963,0.1222,0.1355,0.1364,0.1362,0.1426,0.1508,0.1526,0.1603,0.1452,0.1453,0.1453,0.1453,0,-0.0416,-0.0413,-0.0411,-0.04,-0.038,-0.0345,-0.0304,-0.0273,-0.0188,-0.0108,0.0044,0.0175,0.0492,0.0792,0.1061,0.1215,0.1462,0.1373,0.154,0.1646,0.1598,0.1724,0.1261,0.1455,0.1455,0.1455,0.1455,0.1455,-0.041,-0.041,-0.0402,-0.0385,-0.036,-0.0311,-0.0267,-0.0207,-0.0126,0.0037,0.0105,0.0333,0.0684,0.1072,0.1221,0.1517,0.1514,0.1645,0.1698,0.1722,0.1794,0.1253,0.1437,0.1436,0.1436,0.1436,0.1436,0,-0.0386,-0.0385,-0.0375,-0.0343,-0.03,-0.0293,-0.0218,-0.015,-0.0038,0.01,0.0246,0.0629,0.1002,0.1316,0.1697,0.1863,0.1932,0.1956,0.2057,0.2139,0.178,0.1744,0.1882,0.1882,0.1882,0.1881,0.1881,0.1881,-0.0368,-0.0359,-0.0356,-0.0282,-0.0253,-0.0168,-0.0115,-0.0018,0.009,0.033,0.0547,0.0733,0.1137,0.1768,0.2184,0.2227,0.2445,0.2371,0.2508,0.23,0.2278,0.2256,0.224,0.2478,0.2479,0.2887,0.2891,0.2894]}],[{"header":{"parameterUnit":"m.s-1","parameterCategory":2,"la1":30.2991,"la2":30.254,"lo1":-89.0895,"lo2":-89.0444,"dy":0.0017,"dx":0.0017,"nx":28,"ny":28,"refTime":"2025-06-08T09:00:00:Z","depth":"2","parameterNumber":2,"parameterNumberName":"U-component_of_CURRENTS"},"data":[0,0,0,0,0,0,0,0,0,0,0,0,0,0,0,0,0,0,0,0,0,0,0,0,0,0,0,0,0,0,0,0,0,0,0,0,0,0,0,0,0,0,0,0,0,0,0,0,0,0,0,0,0,0,0,0,0,0,-0.3304,-0.3304,0,-0.3349,-0.335,-0.3351,-0.3371,-0.337,-0.337,-0.337,-0.3402,-0.3403,-0.3405,0,0,0,0,0,0,0,0,0,0,0,0,0,-0.3023,-0.3029,-0.3304,-0.3304,-0.3304,-0.3349,-0.335,-0.3351,-0.3371,-0.337,-0.337,-0.3369,-0.3402,-0.3403,-0.3405,0,0,0,0,0,0,0,0,0,0,0,0,0,-0.3118,-0.3032,-0.3304,-0.3317,-0.3318,-0.3349,-0.335,-0.3351,-0.3371,-0.337,-0.337,-0.3369,-0.3401,-0.3403,-0.3405,-0.3427,0,0,-0.341,-0.3411,0,0,0,0,0,0,0,0,-0.3113,-0.3129,-0.3315,-0.3316,-0.3318,-0.3351,-0.3263,-0.3375,-0.3371,-0.3354,-0.337,-0.3369,-0.3382,-0.3385,-0.34,-0.3429,-0.343,-0.3411,-0.3412,-0.3412,-0.3413,0,0,0,0,0,0,0,-0.3106,-0.3125,-0.3325,-0.3315,-0.3317,-0.3248,-0.3263,-0.3283,-0.3373,-0.3356,-0.3357,-0.3357,-0.3383,-0.3398,-0.3401,-0.3431,-0.3411,-0.3412,-0.3413,-0.3414,-0.3303,-0.33,0,0,0,0,0,0,-0.3107,-0.3122,-0.3323,-0.3326,-0.3208,-0.3254,-0.3271,-0.3343,-0.3373,-0.3376,-0.3357,-0.3357,-0.3396,-0.3399,-0.3402,-0.3347,-0.3412,-0.3414,-0.3415,-0.3307,-0.3302,-0.3298,0,0,0,0,0,0,-0.3103,-0.3128,-0.3322,-0.3216,-0.3236,-0.3261,-0.3341,-0.3345,-0.339,-0.3374,-0.3377,-0.3401,-0.3395,-0.3399,-0.3439,-0.3351,-0.3415,-0.3417,-0.3312,-0.3306,-0.33,-0.3289,0,0,0,0,0,0,-0.3096,-0.3128,-0.3164,-0.322,-0.3242,-0.3355,-0.3341,-0.3346,-0.3387,-0.3389,-0.3412,-0.3412,-0.3395,-0.3437,-0.3441,-0.3355,-0.3418,-0.3317,-0.3309,-0.3302,-0.3295,-0.3284,-0.3274,0,0,0,0,0,-0.3087,-0.3153,-0.3168,-0.319,-0.33,-0.3356,-0.3362,-0.3375,-0.339,-0.3415,-0.343,-0.3413,-0.3386,-0.344,-0.3445,-0.3356,-0.3321,-0.3312,-0.3303,-0.3299,-0.3286,-0.3274,0,0,0,0,0,0,-0.304,-0.3162,-0.318,-0.3278,-0.3314,-0.3358,-0.337,-0.3401,-0.3437,-0.3439,-0.3439,-0.3441,-0.3408,-0.34,-0.3458,-0.3286,-0.3319,-0.3311,-0.3314,-0.3301,-0.3291,-0.3287,-0.342,0,0,0,0,0,-0.305,-0.3132,-0.3214,-0.3276,-0.3306,-0.3348,-0.3369,-0.3394,-0.3432,-0.3449,-0.3476,-0.3444,-0.3368,-0.3363,-0.3326,-0.3305,-0.3264,-0.3218,-0.3207,-0.3199,-0.319,-0.3075,-0.3055,-0.3268,-0.3268,-0.3269,0,0,-0.302,-0.3112,-0.314,-0.3268,-0.3296,-0.3371,-0.3362,-0.3413,-0.3446,-0.3446,-0.3508,-0.3443,-0.3357,-0.3291,-0.3268,-0.3285,-0.3114,-0.3188,-0.3183,-0.3177,-0.3063,-0.3043,-0.3025,-0.3262,-0.3263,-0.3264,0,0,-0.3045,-0.3116,-0.3206,-0.3265,-0.3345,-0.3374,-0.3406,-0.3487,-0.3486,-0.3538,-0.3474,-0.3391,-0.3383,-0.326,-0.3193,-0.3114,-0.3066,-0.3057,-0.3013,-0.2901,-0.2884,-0.2869,-0.2796,-0.2773,-0.3049,-0.3049,-0.3049,0,-0.3007,-0.3147,-0.322,-0.3337,-0.3354,-0.3397,-0.3462,-0.3487,-0.3564,-0.3504,-0.3556,-0.3374,-0.3346,-0.3137,-0.309,-0.309,-0.3034,-0.3082,-0.2893,-0.2876,-0.2861,-0.2789,-0.2765,-0.3047,-0.3048,-0.3048,-0.3048,0,-0.3113,-0.3213,-0.326,-0.3423,-0.3463,-0.3507,-0.3558,-0.3576,-0.3579,-0.3551,-0.3397,-0.3337,-0.3184,-0.3133,-0.3108,-0.2903,-0.2903,-0.2904,-0.2943,-0.2839,-0.277,-0.2745,-0.3045,-0.3046,-0.3046,-0.3047,0,0,-0.3026,-0.3283,-0.3285,-0.3337,-0.3493,-0.351,-0.3557,-0.3521,-0.3448,-0.3465,-0.3321,-0.318,-0.3077,-0.299,-0.2888,-0.2812,-0.2674,-0.2815,-0.2809,-0.2774,-0.244,-0.2438,-0.2412,-0.2643,-0.2638,-0.2634,-0.2441,0,-0.3052,-0.3247,-0.3362,-0.3444,-0.3521,-0.3548,-0.3548,-0.3516,-0.3462,-0.3352,-0.3183,-0.3026,-0.3032,-0.2901,-0.2819,-0.2693,-0.2605,-0.2728,-0.2516,-0.251,-0.2547,-0.2381,-0.2239,-0.2053,-0.2416,-0.2412,-0.2409,0,-0.3089,-0.3215,-0.3323,-0.3402,-0.3418,-0.3436,-0.3331,-0.3345,-0.3201,-0.3144,-0.2968,-0.2864,-0.2664,-0.2719,-0.248,-0.2554,-0.2486,-0.2442,-0.2432,-0.2417,-0.246,-0.2207,-0.1994,-0.2368,-0.2371,-0.2374,-0.2377,0,-0.2942,-0.3138,-0.3185,-0.3234,-0.3365,-0.3299,-0.329,-0.3208,-0.3145,-0.2959,-0.2889,-0.2656,-0.2516,-0.2405,-0.2322,-0.2372,-0.212,-0.2168,-0.2102,-0.2103,-0.1933,-0.1927,-0.2004,-0.2004,-0.2005,-0.2005,-0.2006,0,-0.2904,-0.2923,-0.3086,-0.3112,-0.3041,-0.315,-0.3005,-0.2975,-0.2885,-0.2781,-0.2712,-0.2597,-0.2438,-0.2298,-0.2244,-0.2083,-0.2034,-0.205,-0.2025,-0.1926,-0.1921,-0.2165,-0.2186,-0.1998,-0.2,-0.2001,-0.2002,0,-0.2733,-0.2872,-0.2918,-0.3003,-0.2989,-0.2905,-0.2875,-0.2785,-0.2747,-0.2621,-0.2561,-0.2476,-0.2273,-0.2142,-0.1942,-0.1963,-0.1832,-0.1795,-0.1715,-0.1684,-0.1916,-0.1938,-0.1671,-0.1669,-0.1667,-0.1665,-0.1664,0,-0.2667,-0.27,-0.2785,-0.2756,-0.2763,-0.2689,-0.2639,-0.2659,-0.2632,-0.2569,-0.2515,-0.2298,-0.216,-0.1891,-0.1749,-0.1565,-0.1667,-0.1465,-0.1539,-0.1865,-0.1868,-0.1893,-0.1918,-0.1301,-0.1297,-0.1294,-0.1291,0,-0.2523,-0.2548,-0.2582,-0.2552,-0.2493,-0.247,-0.243,-0.2437,-0.2481,-0.2431,-0.237,-0.2249,-0.1946,-0.1673,-0.1461,-0.1382,-0.1483,-0.1396,-0.1646,-0.145,-0.1511,-0.1518,-0.1553,-0.126,-0.1263,-0.1265,-0.1267,-0.1268,-0.2344,-0.2318,-0.2365,-0.2299,-0.227,-0.2253,-0.2207,-0.226,-0.2246,-0.2151,-0.2194,-0.1945,-0.182,-0.1353,-0.1229,-0.1094,-0.1213,-0.1238,-0.1248,-0.1263,-0.1297,-0.1354,-0.1082,-0.1083,-0.1085,-0.1087,-0.1088,0,-0.2138,-0.2127,-0.2101,-0.2072,-0.2029,-0.2026,-0.2069,-0.201,-0.2005,-0.1902,-0.1792,-0.152,-0.1309,-0.1108,-0.0852,-0.088,-0.0867,-0.0861,-0.0847,-0.0878,-0.0905,-0.0923,-0.0606,-0.0605,-0.0604,-0.0603,0,0,-0.2011,-0.1952,-0.1979,-0.1862,-0.1803,-0.17,-0.1705,-0.1613,-0.155,-0.1385,-0.1225,-0.1186,-0.1139,-0.0896,-0.0832,-0.0662,-0.0764,-0.0623,-0.1006,-0.1019,-0.1045,-0.1115,-0.1176,0,0,0,0,0]},{"header":{"parameterUnit":"m.s-1","parameterCategory":2,"la1":30.2991,"la2":30.254,"lo1":-89.0895,"lo2":-89.0444,"dy":0.0017,"dx":0.0017,"nx":28,"ny":28,"refTime":"2025-06-08T09:00:00:Z","depth":"2","parameterNumber":3,"parameterNumberName":"V-component_of_CURRENTS"},"data":[0,0,0,0,0,0,0,0,0,0,0,0,0,0,0,0,0,0,0,0,0,0,0,0,0,0,0,0,0,0,0,0,0,0,0,0,0,0,0,0,0,0,0,0,0,0,0,0,0,0,0,0,0,0,0,0,0,0,-0.0293,-0.0293,0,-0.0209,-0.0207,-0.0205,-0.0048,-0.0046,-0.0044,-0.0042,0.0359,0.0368,0.0376,0,0,0,0,0,0,0,0,0,0,0,0,0,-0.0194,-0.0196,-0.0293,-0.0293,-0.0292,-0.0209,-0.0207,-0.0205,-0.0049,-0.0046,-0.0043,-0.0041,0.0356,0.0367,0.0377,0,0,0,0,0,0,0,0,0,0,0,0,0,-0.0177,-0.0197,-0.0293,-0.0211,-0.0204,-0.0209,-0.0207,-0.0204,-0.0049,-0.0046,-0.0043,-0.004,0.0353,0.0366,0.0379,0.0394,0,0,0.0418,0.0424,0,0,0,0,0,0,0,0,-0.0178,-0.018,-0.0224,-0.0217,-0.0209,-0.0144,-0.0025,0.0008,-0.005,-0.0098,-0.0042,-0.0038,0.0212,0.0236,0.0254,0.0412,0.043,0.0419,0.0427,0.0433,0.0437,0,0,0,0,0,0,0,-0.018,-0.0182,-0.025,-0.0224,-0.0215,-0.0137,-0.0131,-0.0018,0.0051,-0.0093,-0.0084,-0.0091,0.022,0.0241,0.0266,0.0436,0.0419,0.0431,0.0439,0.0444,0.0711,0.0711,0,0,0,0,0,0,-0.0221,-0.0185,-0.0253,-0.0248,-0.0196,-0.0143,-0.0136,-0.016,0.0043,0.0072,-0.0094,-0.0084,0.0217,0.025,0.0281,0.0396,0.0433,0.0445,0.0452,0.0712,0.0711,0.071,0,0,0,0,0,0,-0.0219,-0.0228,-0.0256,-0.022,-0.0219,-0.015,-0.0177,-0.0161,-0.0102,0.0037,0.0075,-0.005,0.0221,0.0262,0.0419,0.041,0.0451,0.0463,0.0713,0.0712,0.0711,0.0573,0,0,0,0,0,0,-0.0217,-0.0229,-0.0236,-0.0224,-0.0223,-0.0252,-0.0181,-0.0162,-0.0118,-0.0103,0.0087,0.0125,0.0227,0.0399,0.0432,0.0429,0.0473,0.0714,0.0712,0.0711,0.0579,0.0568,0.0558,0,0,0,0,0,-0.0214,-0.0253,-0.0238,-0.0245,-0.0245,-0.0254,-0.0245,-0.0176,-0.012,-0.0106,0.0041,0.0121,0.0413,0.041,0.0449,0.0449,0.0714,0.0713,0.0711,0.0583,0.057,0.0558,0,0,0,0,0,0,-0.0208,-0.0242,-0.0224,-0.0268,-0.0258,-0.023,-0.0221,-0.0172,-0.0054,-0.0018,0.0139,0.0186,0.0307,0.0397,0.039,0.0517,0.0566,0.0572,0.0455,0.0444,0.0434,0.0412,0.0484,0,0,0,0,0,-0.0221,-0.0255,-0.0265,-0.0293,-0.0299,-0.0253,-0.0238,-0.02,-0.0117,-0.0062,0.0076,0.0213,0.0317,0.0401,0.0506,0.0599,0.0682,0.0614,0.0604,0.0595,0.0601,0.0741,0.0744,0.0705,0.0705,0.0706,0,0,-0.0224,-0.025,-0.0263,-0.0293,-0.0279,-0.0279,-0.0232,-0.0227,-0.0187,-0.0034,0.0097,0.0192,0.0332,0.0424,0.0484,0.0514,0.0636,0.0593,0.0584,0.0596,0.074,0.0744,0.0747,0.0704,0.0705,0.0705,0,0,-0.0268,-0.0278,-0.0322,-0.0319,-0.0324,-0.0294,-0.0291,-0.0248,-0.0186,-0.0086,0.0026,0.013,0.0305,0.0396,0.0463,0.0465,0.0571,0.0477,0.0428,0.0562,0.0567,0.0573,0.0623,0.0634,0.048,0.048,0.048,0,-0.0264,-0.0321,-0.0328,-0.036,-0.0348,-0.03,-0.031,-0.0258,-0.0149,-0.0098,-0.0052,0.0172,0.029,0.0399,0.0385,0.0445,0.051,0.0462,0.055,0.0558,0.0566,0.0617,0.0631,0.0473,0.0474,0.0474,0.0475,0,-0.0339,-0.036,-0.0386,-0.04,-0.0386,-0.0394,-0.0343,-0.0287,-0.0207,-0.0147,-0.0028,0.0111,0.0243,0.0269,0.0336,0.0425,0.0443,0.0513,0.0579,0.0562,0.0615,0.0633,0.0463,0.0466,0.0468,0.0469,0,0,-0.0386,-0.0429,-0.0432,-0.0433,-0.0403,-0.0406,-0.0344,-0.0287,-0.0239,-0.0135,-0.0058,0.0078,0.0132,0.0209,0.0291,0.0393,0.0477,0.046,0.047,0.0502,0.0715,0.0643,0.0656,0.0568,0.0572,0.0575,0.0707,0,-0.0428,-0.0501,-0.049,-0.0492,-0.0513,-0.0439,-0.0389,-0.0321,-0.0238,-0.0148,-0.0032,0.007,0.0115,0.0167,0.027,0.0454,0.0526,0.0431,0.0734,0.0741,0.0678,0.0677,0.0629,0.0738,0.0725,0.0728,0.073,0,-0.05,-0.0533,-0.0572,-0.0546,-0.0545,-0.0519,-0.0433,-0.0385,-0.0264,-0.0202,-0.0102,-0.0002,0.0146,0.0188,0.0465,0.0402,0.053,0.0652,0.0663,0.0666,0.0705,0.0768,0.0771,0.0761,0.0758,0.0756,0.0754,0,-0.0552,-0.0576,-0.0604,-0.0598,-0.0568,-0.0541,-0.0498,-0.0401,-0.035,-0.0231,-0.0182,-0.0006,0.0109,0.0308,0.0531,0.0519,0.0828,0.0864,0.09,0.0894,0.095,0.0942,0.104,0.104,0.1039,0.1039,0.1039,0,-0.061,-0.0623,-0.0633,-0.0648,-0.0638,-0.0599,-0.0557,-0.0496,-0.0403,-0.0338,-0.022,-0.0122,0.0155,0.0354,0.0534,0.0762,0.0843,0.0886,0.094,0.0888,0.0875,0.0989,0.0982,0.1044,0.1043,0.1042,0.1041,0,-0.066,-0.0678,-0.07,-0.0685,-0.0673,-0.0663,-0.0593,-0.0561,-0.0487,-0.0395,-0.0356,-0.0155,0.0107,0.0341,0.069,0.0769,0.0999,0.1047,0.091,0.0944,0.0957,0.0941,0.1101,0.11,0.1099,0.1098,0.1098,0,-0.0691,-0.0724,-0.0729,-0.0727,-0.0713,-0.0691,-0.0667,-0.06,-0.0559,-0.0404,-0.0356,-0.0117,0.0081,0.0491,0.0707,0.0972,0.1022,0.102,0.0989,0.0935,0.0973,0.0958,0.0943,0.0994,0.0992,0.0991,0.099,0,-0.0724,-0.0732,-0.0747,-0.0754,-0.074,-0.0723,-0.0685,-0.0675,-0.0583,-0.0515,-0.0344,-0.0173,0.0188,0.0473,0.0747,0.0896,0.0971,0.0998,0.1073,0.0953,0.0837,0.0872,0.0861,0.098,0.0981,0.0982,0.0982,0.0982,-0.0717,-0.0733,-0.0753,-0.075,-0.0739,-0.073,-0.0723,-0.0692,-0.0642,-0.0564,-0.0387,-0.0162,0.0105,0.0487,0.0715,0.0904,0.0926,0.0958,0.0962,0.0967,0.09,0.0786,0.0902,0.0902,0.0903,0.0903,0.0904,0,-0.07,-0.0715,-0.0731,-0.0735,-0.0738,-0.0707,-0.0704,-0.0731,-0.0693,-0.0594,-0.0465,-0.0185,0.01,0.0425,0.0702,0.0846,0.0866,0.0875,0.0886,0.0894,0.0902,0.0832,0.0816,0.0816,0.0816,0.0817,0,0,-0.0686,-0.0711,-0.0734,-0.073,-0.0707,-0.0698,-0.0694,-0.0744,-0.0707,-0.0619,-0.0465,-0.0366,0.0094,0.0229,0.0472,0.0671,0.0728,0.0677,0.0728,0.0718,0.0724,0.0931,0.0828,0,0,0,0,0]}],[{"header":{"parameterUnit":"m.s-1","parameterCategory":2,"la1":30.2991,"la2":30.254,"lo1":-89.0895,"lo2":-89.0444,"dy":0.0017,"dx":0.0017,"nx":28,"ny":28,"refTime":"2025-06-08T09:00:00:Z","depth":"4","parameterNumber":2,"parameterNumberName":"U-component_of_CURRENTS"},"data":[0,0,0,0,0,0,0,0,0,0,0,0,0,0,0,0,0,0,0,0,0,0,0,0,0,0,0,0,0,0,0,0,0,0,0,0,0,0,0,0,0,0,0,0,0,0,0,0,0,0,0,0,0,0,0,0,0,0,-0.1511,-0.1513,0,-0.1645,-0.1647,-0.1648,-0.1717,-0.1718,-0.1718,-0.1718,-0.1835,-0.1838,-0.1841,0,0,0,0,0,0,0,0,0,0,0,0,0,-0.1361,-0.1363,-0.1511,-0.1513,-0.1515,-0.1645,-0.1647,-0.1649,-0.1717,-0.1718,-0.1718,-0.1718,-0.1834,-0.1838,-0.1841,0,0,0,0,0,0,0,0,0,0,0,0,0,-0.1453,-0.1364,-0.1511,-0.1565,-0.1572,-0.1645,-0.1647,-0.1649,-0.1717,-0.1718,-0.1718,-0.1718,-0.1833,-0.1837,-0.1842,-0.1865,0,0,-0.1856,-0.1857,0,0,0,0,0,0,0,0,-0.1447,-0.1458,-0.1556,-0.1562,-0.1569,-0.1666,-0.1637,-0.1721,-0.1717,-0.1661,-0.1718,-0.1718,-0.1777,-0.1786,-0.181,-0.187,-0.1875,-0.1856,-0.1859,-0.1861,-0.1862,0,0,0,0,0,0,0,-0.1441,-0.1453,-0.1564,-0.1557,-0.1566,-0.1599,-0.1612,-0.1653,-0.1715,-0.1666,-0.1672,-0.1688,-0.1781,-0.1806,-0.1813,-0.1877,-0.1856,-0.186,-0.1863,-0.1864,-0.2051,-0.2053,0,0,0,0,0,0,-0.1424,-0.1447,-0.1559,-0.1568,-0.1508,-0.1601,-0.1616,-0.1634,-0.1716,-0.1729,-0.1687,-0.169,-0.1798,-0.1808,-0.1818,-0.1931,-0.1861,-0.1865,-0.1867,-0.2049,-0.2051,-0.2054,0,0,0,0,0,0,-0.142,-0.1432,-0.1554,-0.1511,-0.1529,-0.1603,-0.1623,-0.1636,-0.1691,-0.1732,-0.1745,-0.1732,-0.1799,-0.1811,-0.1891,-0.1932,-0.1867,-0.1871,-0.2046,-0.205,-0.2053,-0.2105,0,0,0,0,0,0,-0.1415,-0.143,-0.1455,-0.151,-0.153,-0.1616,-0.1624,-0.1639,-0.1699,-0.1705,-0.1774,-0.1784,-0.18,-0.1885,-0.1896,-0.1937,-0.1874,-0.2043,-0.2048,-0.2052,-0.21,-0.2109,-0.2117,0,0,0,0,0,-0.1409,-0.1436,-0.1455,-0.147,-0.1556,-0.1617,-0.1632,-0.1685,-0.1701,-0.1733,-0.1787,-0.1783,-0.1919,-0.189,-0.1903,-0.1947,-0.2041,-0.2046,-0.2051,-0.2096,-0.2107,-0.2117,0,0,0,0,0,0,-0.1391,-0.1447,-0.1469,-0.1515,-0.1571,-0.163,-0.1672,-0.1702,-0.177,-0.1784,-0.1817,-0.1831,-0.191,-0.1927,-0.1895,-0.2014,-0.1978,-0.1986,-0.2008,-0.2019,-0.2027,-0.2005,-0.1878,0,0,0,0,0,-0.1395,-0.1426,-0.1488,-0.1526,-0.1559,-0.1621,-0.1659,-0.1693,-0.1752,-0.1784,-0.1831,-0.1885,-0.1937,-0.1977,-0.2017,-0.2091,-0.2067,-0.2127,-0.2136,-0.2143,-0.2135,-0.2149,-0.2157,-0.2071,-0.2071,-0.2071,0,0,-0.1402,-0.1433,-0.1456,-0.1524,-0.1575,-0.1629,-0.1646,-0.1712,-0.176,-0.1785,-0.1875,-0.1915,-0.1962,-0.204,-0.2077,-0.2065,-0.2153,-0.2149,-0.2155,-0.2143,-0.2155,-0.2163,-0.217,-0.2074,-0.2074,-0.2073,0,0,-0.1413,-0.146,-0.149,-0.1539,-0.1612,-0.1653,-0.1677,-0.1755,-0.1801,-0.1886,-0.1913,-0.1983,-0.2069,-0.2111,-0.2142,-0.2226,-0.2191,-0.2244,-0.2282,-0.2297,-0.2303,-0.2308,-0.2271,-0.2273,-0.2258,-0.2258,-0.2258,0,-0.1416,-0.1464,-0.1511,-0.1554,-0.1597,-0.1665,-0.1712,-0.1773,-0.1866,-0.1904,-0.1922,-0.2056,-0.2101,-0.2187,-0.2222,-0.2244,-0.2225,-0.2237,-0.2305,-0.231,-0.2314,-0.2275,-0.2276,-0.2261,-0.2261,-0.226,-0.226,0,-0.1452,-0.1499,-0.1526,-0.1597,-0.1649,-0.1705,-0.1783,-0.1848,-0.191,-0.1961,-0.2063,-0.2132,-0.2205,-0.2243,-0.2265,-0.2332,-0.2296,-0.2303,-0.227,-0.2325,-0.2281,-0.2281,-0.2266,-0.2264,-0.2263,-0.2263,0,0,-0.1426,-0.1528,-0.154,-0.1573,-0.1676,-0.1714,-0.1806,-0.1895,-0.1949,-0.205,-0.2115,-0.2232,-0.2263,-0.2299,-0.234,-0.2373,-0.2395,-0.2359,-0.2359,-0.2305,-0.2387,-0.2194,-0.2175,-0.2413,-0.2414,-0.2415,-0.2335,0,-0.1441,-0.1504,-0.1563,-0.1637,-0.1678,-0.1764,-0.1835,-0.1921,-0.2004,-0.2085,-0.2171,-0.225,-0.2287,-0.2329,-0.2372,-0.2396,-0.2401,-0.2413,-0.2355,-0.2352,-0.2161,-0.2171,-0.2418,-0.2335,-0.2335,-0.2335,-0.2335,0,-0.1454,-0.1492,-0.1558,-0.1641,-0.1671,-0.1729,-0.1838,-0.1913,-0.2037,-0.2099,-0.2193,-0.2253,-0.2343,-0.2352,-0.2408,-0.2413,-0.2396,-0.2401,-0.2399,-0.2196,-0.2159,-0.2275,-0.2334,-0.2334,-0.2334,-0.2334,-0.2334,0,-0.1384,-0.1484,-0.1529,-0.1565,-0.1677,-0.1726,-0.1795,-0.1917,-0.1972,-0.2106,-0.2147,-0.2262,-0.2313,-0.2343,-0.2373,-0.2392,-0.2387,-0.2411,-0.2207,-0.2192,-0.2367,-0.2362,-0.2405,-0.2405,-0.2405,-0.2405,-0.2405,0,-0.1347,-0.1392,-0.1505,-0.1527,-0.1584,-0.1681,-0.1756,-0.1844,-0.1954,-0.2001,-0.2143,-0.2183,-0.2314,-0.2337,-0.2354,-0.2262,-0.2367,-0.2189,-0.2159,-0.2389,-0.2389,-0.2365,-0.2361,-0.2402,-0.2403,-0.2403,-0.2404,0,-0.1259,-0.1336,-0.1397,-0.1515,-0.1551,-0.1592,-0.1711,-0.1756,-0.1879,-0.1939,-0.1976,-0.2122,-0.215,-0.222,-0.2257,-0.22,-0.216,-0.209,-0.2292,-0.2278,-0.1956,-0.1957,-0.1852,-0.1844,-0.1838,-0.1833,-0.1828,0,-0.1218,-0.1246,-0.1366,-0.1388,-0.1445,-0.1522,-0.1566,-0.1702,-0.174,-0.1877,-0.1879,-0.1957,-0.203,-0.192,-0.2022,-0.1985,-0.1971,-0.1917,-0.1972,-0.1917,-0.19,-0.1911,-0.192,-0.1818,-0.1816,-0.1815,-0.1813,0,-0.1145,-0.1209,-0.1245,-0.129,-0.1338,-0.1385,-0.1457,-0.1464,-0.1602,-0.1718,-0.1724,-0.1741,-0.1749,-0.1794,-0.1757,-0.1751,-0.195,-0.1851,-0.1865,-0.1916,-0.1875,-0.1867,-0.1883,-0.1791,-0.1794,-0.1796,-0.1798,0,-0.1095,-0.1102,-0.1153,-0.1181,-0.1221,-0.1223,-0.1289,-0.132,-0.137,-0.1519,-0.1512,-0.1609,-0.1719,-0.1666,-0.1651,-0.1608,-0.1597,-0.1553,-0.1583,-0.1608,-0.1569,-0.1484,-0.123,0,0,0,0,0,-0.1032,-0.1021,-0.1038,-0.1042,-0.1071,-0.1099,-0.1195,-0.1269,-0.1392,-0.1335,-0.1416,-0.1417,-0.1405,-0.1473,-0.1379,-0.1539,-0.1604,-0.1421,-0.1569,-0.1669,-0.1695,-0.1674,0,0,0,0,0,0,-0.0981,-0.0991,-0.0994,-0.0914,-0.0889,-0.0911,-0.0971,-0.1068,-0.1054,-0.1189,-0.12,-0.1288,-0.1314,-0.1417,-0.1334,-0.1345,-0.1397,-0.1478,-0.1472,-0.1655,-0.1678,-0.1698,-0.1686,0,0,0,0,0]},{"header":{"parameterUnit":"m.s-1","parameterCategory":2,"la1":30.2991,"la2":30.254,"lo1":-89.0895,"lo2":-89.0444,"dy":0.0017,"dx":0.0017,"nx":28,"ny":28,"refTime":"2025-06-08T09:00:00:Z","depth":"4","parameterNumber":3,"parameterNumberName":"V-component_of_CURRENTS"},"data":[0,0,0,0,0,0,0,0,0,0,0,0,0,0,0,0,0,0,0,0,0,0,0,0,0,0,0,0,0,0,0,0,0,0,0,0,0,0,0,0,0,0,0,0,0,0,0,0,0,0,0,0,0,0,0,0,0,0,-0.0376,-0.0376,0,-0.0324,-0.0323,-0.0323,-0.0288,-0.0288,-0.0288,-0.0287,-0.0119,-0.0115,-0.011,0,0,0,0,0,0,0,0,0,0,0,0,0,-0.0419,-0.0419,-0.0376,-0.0376,-0.0375,-0.0324,-0.0323,-0.0322,-0.0288,-0.0288,-0.0288,-0.0287,-0.012,-0.0115,-0.011,0,0,0,0,0,0,0,0,0,0,0,0,0,-0.0387,-0.0419,-0.0376,-0.0352,-0.0349,-0.0324,-0.0323,-0.0322,-0.0288,-0.0288,-0.0288,-0.0287,-0.0122,-0.0116,-0.0109,-0.0076,0,0,-0.009,-0.0087,0,0,0,0,0,0,0,0,-0.0389,-0.0386,-0.0356,-0.0353,-0.035,-0.0312,-0.0277,-0.0234,-0.0288,-0.0311,-0.0287,-0.0287,-0.0173,-0.0162,-0.0155,-0.0068,-0.0061,-0.0089,-0.0085,-0.0082,-0.0081,0,0,0,0,0,0,0,-0.0391,-0.0387,-0.0355,-0.0355,-0.0352,-0.0334,-0.0329,-0.0269,-0.0242,-0.0309,-0.0306,-0.0301,-0.0171,-0.0161,-0.015,-0.0058,-0.0089,-0.0083,-0.0079,-0.0077,0.0093,0.0093,0,0,0,0,0,0,-0.04,-0.039,-0.0357,-0.0354,-0.0369,-0.0334,-0.0328,-0.0325,-0.0245,-0.0234,-0.0301,-0.03,-0.0172,-0.0158,-0.0144,-0.011,-0.0082,-0.0076,-0.0073,0.0092,0.0093,0.0094,0,0,0,0,0,0,-0.0401,-0.0398,-0.0359,-0.037,-0.0364,-0.0334,-0.0329,-0.0324,-0.0318,-0.0241,-0.0227,-0.0302,-0.0171,-0.0153,-0.0098,-0.0102,-0.0073,-0.0068,0.0091,0.0092,0.0093,-0.0034,0,0,0,0,0,0,-0.0403,-0.0398,-0.0399,-0.0371,-0.0364,-0.0355,-0.033,-0.0323,-0.0315,-0.0312,-0.0236,-0.022,-0.017,-0.0108,-0.0092,-0.0093,-0.0063,0.009,0.0092,0.0093,-0.003,-0.0037,-0.0043,0,0,0,0,0,-0.0404,-0.0403,-0.04,-0.0396,-0.0366,-0.0356,-0.0351,-0.0327,-0.0316,-0.032,-0.0267,-0.0223,-0.0088,-0.0103,-0.0084,-0.0083,0.009,0.0091,0.0093,-0.0027,-0.0036,-0.0043,0,0,0,0,0,0,-0.0417,-0.0399,-0.0394,-0.0387,-0.038,-0.035,-0.0347,-0.0334,-0.0299,-0.0293,-0.0221,-0.0202,-0.0153,-0.0094,-0.0113,-0.0026,0.0012,0.0017,-0.0086,-0.0093,-0.01,-0.0114,-0.0057,0,0,0,0,0,-0.0423,-0.0423,-0.0405,-0.0402,-0.0399,-0.0377,-0.0369,-0.0359,-0.0324,-0.031,-0.0259,-0.0192,-0.0131,-0.0097,-0.0035,0.0009,0.0039,0.0028,0.0021,0.0015,0.002,0.0049,0.0044,0.0098,0.0098,0.0098,0,0,-0.0427,-0.0418,-0.0417,-0.0406,-0.0396,-0.0405,-0.0372,-0.0369,-0.0373,-0.0293,-0.0275,-0.0214,-0.0123,-0.008,-0.0051,-0.0033,0.0012,0.0017,0.0011,0.0019,0.005,0.0044,0.0039,0.0099,0.0099,0.0099,0,0,-0.0445,-0.0429,-0.0442,-0.0444,-0.0439,-0.0425,-0.043,-0.041,-0.0396,-0.0374,-0.0313,-0.0261,-0.0174,-0.0118,-0.0073,-0.0071,-0.0025,-0.0042,-0.0087,-0.0061,-0.0066,-0.007,-0.0072,-0.0076,-0.0045,-0.0045,-0.0046,0,-0.0454,-0.0468,-0.0444,-0.0465,-0.0474,-0.0441,-0.0468,-0.0446,-0.0414,-0.0399,-0.0381,-0.0263,-0.0192,-0.0132,-0.0128,-0.0089,-0.0074,-0.0077,-0.0074,-0.0077,-0.0079,-0.008,-0.0082,-0.0051,-0.0051,-0.005,-0.0049,0,-0.0489,-0.0506,-0.0513,-0.0531,-0.0536,-0.0551,-0.0531,-0.0522,-0.05,-0.0476,-0.0424,-0.034,-0.0268,-0.0236,-0.0178,-0.0146,-0.0134,-0.0095,-0.007,-0.0093,-0.0092,-0.0092,-0.006,-0.0058,-0.0056,-0.0054,0,0,-0.0499,-0.0534,-0.054,-0.0569,-0.0578,-0.0586,-0.0588,-0.0578,-0.0575,-0.0532,-0.0523,-0.0418,-0.0374,-0.0319,-0.0245,-0.0212,-0.0222,-0.0163,-0.0159,-0.0193,-0.019,-0.0118,-0.0111,-0.0191,-0.019,-0.019,-0.0197,0,-0.054,-0.0598,-0.0603,-0.0659,-0.0687,-0.0672,-0.068,-0.0664,-0.0631,-0.0608,-0.0522,-0.0476,-0.0405,-0.0372,-0.0331,-0.0231,-0.0221,-0.0225,-0.0135,-0.0133,-0.0089,-0.0107,-0.0189,-0.0197,-0.0196,-0.0196,-0.0196,0,-0.0575,-0.0612,-0.0679,-0.073,-0.0742,-0.0771,-0.0778,-0.0779,-0.0729,-0.0702,-0.0646,-0.0574,-0.0498,-0.0444,-0.0329,-0.0337,-0.0277,-0.0216,-0.0214,-0.0097,-0.0059,-0.0153,-0.0195,-0.0195,-0.0195,-0.0195,-0.0196,0,-0.0595,-0.0662,-0.0721,-0.0742,-0.079,-0.0816,-0.0833,-0.0809,-0.0807,-0.0757,-0.0744,-0.0652,-0.0596,-0.0509,-0.0352,-0.0354,-0.0234,-0.0225,-0.012,-0.0116,-0.0127,-0.0122,-0.0176,-0.0176,-0.0176,-0.0176,-0.0176,0,-0.0629,-0.0679,-0.074,-0.0776,-0.0842,-0.086,-0.0905,-0.0896,-0.0884,-0.0878,-0.0793,-0.0748,-0.0605,-0.0501,-0.0392,-0.0237,-0.0268,-0.013,-0.0104,-0.0183,-0.0183,-0.013,-0.0124,-0.0177,-0.0176,-0.0176,-0.0176,0,-0.0642,-0.0682,-0.0757,-0.0831,-0.0857,-0.0902,-0.0964,-0.098,-0.0965,-0.0954,-0.0941,-0.0822,-0.0666,-0.0517,-0.0356,-0.0274,-0.0143,-0.0088,-0.0196,-0.0176,-0.0054,-0.0055,-0.0014,-0.0011,-0.0009,-0.0007,-0.0005,0,-0.0653,-0.0694,-0.0796,-0.0844,-0.0887,-0.0955,-0.0996,-0.1015,-0.1019,-0.0978,-0.0961,-0.0822,-0.0717,-0.0447,-0.0292,-0.0102,-0.0059,-0.0043,-0.0039,-0.0054,-0.0034,-0.0038,-0.0042,-0.0002,-0.0001,-0.0001,0.0,0,-0.0677,-0.0717,-0.0776,-0.0872,-0.0939,-0.1008,-0.1061,-0.1068,-0.1068,-0.1064,-0.0949,-0.0805,-0.0619,-0.0409,-0.0238,-0.0102,-0.008,-0.0019,-0.0024,-0.002,-0.0039,-0.0022,-0.0028,0.0008,0.0007,0.0006,0.0006,0,-0.0692,-0.0732,-0.0808,-0.0886,-0.0973,-0.103,-0.1063,-0.1056,-0.1057,-0.1003,-0.0958,-0.0768,-0.0663,-0.0407,-0.0251,-0.0095,-0.0076,-0.0078,-0.0079,-0.0086,-0.0078,-0.0111,-0.0067,0,0,0,0,0,-0.0699,-0.074,-0.0817,-0.0901,-0.0986,-0.1033,-0.1088,-0.1103,-0.1098,-0.1015,-0.0986,-0.0802,-0.0541,-0.0418,-0.0247,-0.022,-0.006,-0.0022,-0.0067,0.0051,0.0042,0.0075,0,0,0,0,0,0,-0.0707,-0.0774,-0.0806,-0.0892,-0.0949,-0.1033,-0.1069,-0.1071,-0.101,-0.0983,-0.082,-0.0779,-0.0496,-0.0618,-0.0241,-0.0196,-0.0211,0.01,0.0102,0.0057,0.0048,0.0041,0.0072,0,0,0,0,0]}]]